Location: Bouillancy
(49.1149°N, 2.9308°E)
Time: 08:37:01
(UTC+00:00)

Cosmos 1892 Rocket - Pass Details

Date: 30 September 2020
Orbit: 606 x 633 km, 82.5° (Epoch: 29 October)

Event Time Altitude Azimuth Distance (km) Brightness Sun altitude
Rises 18:51:24 0° 353° (N) 2,879 7.2 -14.4°
Reaches altitude 10° 18:53:40 10° 357° (N) 1,972 6.3 -14.7°
Maximum altitude 18:57:58 59° 77° (ENE) 712 3.5 -15.4°
Enters shadow 19:01:34 15° 155° (SSE) 1,690 5.4 -16.0°
